Tracking 19192 objects as of 19-Jun-2018
HD Live streaming from Space Station
objects crossing your sky now

FENGYUN 1C DEB

Track FENGYUN 1C DEB now!
10-day predictions


NORAD ID: 38119
Int'l Code: 1999-025EPQ
Perigee: 732.1 km
Apogee: 1,283.1 km
Inclination: 98.6 °
Period: 105.1 minutes
Semi major axis: 7378 km
RCS: 0.008 m2 (small)
Launch date: May 10, 1999
Source: People's Republic of China (PRC)
Launch site: Taiyaun Space Center, China (TSC)

Note: This is SATELLITE DEBRIS
aabbcc
Your satellite tracking list
Your tracking list is empty




NASA's NSSDC Master Catalog

Two Line Element Set (TLE):
1 38119U 99025EPQ 18166.57639213 +.00002235 +00000-0 +15869-2 0  9998
2 38119 098.6153 079.2317 0373358 098.6130 022.5041 13.69757756162314
Source of the keplerian elements: AFSPC